Weather History for Jerome, ID

Change the Weather History Date:

Tuesday, June 18, 2013

  Actual Average Record
Temperature  
Mean Temperature 72 °F 64 °F  
Max Temperature 86 °F 78 °F 101 °F (1974)
Min Temperature 57 °F 50 °F 33 °F (1973)
Degree Days  
Heating Degree Days 0 3  
Month to date heating degree days 36 83  
Since 1 June heating degree days 36 83  
Since 1 July heating degree days 6211 6610  
Cooling Degree Days 7 2  
Month to date cooling degree days 63 27  
Year to date cooling degree days 78 40  
Since 1 June cooling degree days 63 27  
Growing Degree Days 22 (Base 50)    
Moisture  
Dew Point 35 °F    
Average Humidity 28    
Maximum Humidity 43    
Minimum Humidity 13    
Precipitation  
Precipitation 0.00 in 0.01 in 0.50 in (1964)
Month to date precipitation 0.01 0.66  
Year to date precipitation 2.41 6.26  
Sea Level Pressure  
Sea Level Pressure 29.67 in    
Wind  
Wind Speed 9 mph (WSW)    
Max Wind Speed 25 mph    
Max Gust Speed 31 mph    
Visibility 10 miles    
Events      
T = Trace of Precipitation, MM = Missing Value Source: NWS Daily Summary

Daily Weather History Graph

Daily Weather History Graph

Search for Another Location

Airport:

Trip Planner

Search our weather history database for the weather conditions in past years. The results will help you decide how hot, cold, wet, or windy it might be!

Date:

Astronomy

Jun. 18, 2013 Rise Set
Actual Time 5:59 AM MDT 9:18 PM MDT
Civil Twilight 5:24 AM MDT 9:54 PM MDT
Nautical Twilight 4:38 AM MDT 10:39 PM MDT
Astronomical Twilight 3:42 AM MDT 11:35 PM MDT
Moon 4:03 PM MDT (6/18) 2:16 AM MDT (6/18)
Length of Visible Light 16h 29m
Length of Day
15h 19m
Waxing Gibbous, 71% of the Moon is Illuminated
Jun 18
Waxing Gibbous
Jun 23
Full
Jun 29
Last Quarter
Jul 8
New
Jul 15
First Quarter

Hourly Weather History & Observations

Time (MDT) Temp. Dew Point Humidity Pressure Visibility Wind Dir Wind Speed Gust Speed Precip Events Conditions
12:53 AM 66.9 °F 39.9 °F 37% 29.75 in 10.0 mi East 10.4 mph - N/A   Clear
1:53 AM 64.0 °F 41.0 °F 43% 29.75 in 10.0 mi East 9.2 mph - N/A   Clear
2:53 AM 63.0 °F 37.0 °F 38% 29.75 in 10.0 mi East 3.5 mph - N/A   Clear
3:53 AM 63.0 °F 35.1 °F 35% 29.74 in 10.0 mi ESE 4.6 mph - N/A   Clear
4:53 AM 61.0 °F 35.1 °F 38% 29.74 in 10.0 mi SSE 6.9 mph - N/A   Clear
5:53 AM 59.0 °F 32.0 °F 36% 29.75 in 10.0 mi South 6.9 mph - N/A   Clear
6:53 AM 57.9 °F 32.0 °F 37% 29.77 in 10.0 mi SSE 3.5 mph - N/A   Clear
7:53 AM 61.0 °F 37.9 °F 42% 29.78 in 10.0 mi SSE 4.6 mph - N/A   Clear
8:53 AM 66.9 °F 30.9 °F 26% 29.79 in 10.0 mi WSW 10.4 mph - N/A   Clear
9:53 AM 70.0 °F 34.0 °F 27% 29.80 in 10.0 mi WSW 10.4 mph - N/A   Clear
10:53 AM 75.9 °F 34.0 °F 22% 29.77 in 10.0 mi West 8.1 mph - N/A   Clear
11:53 AM 79.0 °F 30.9 °F 17% 29.75 in 10.0 mi West 10.4 mph - N/A   Clear
12:53 PM 80.1 °F 30.9 °F 17% 29.74 in 10.0 mi West 9.2 mph - N/A   Clear
1:53 PM 82.9 °F 30.9 °F 15% 29.71 in 10.0 mi West 9.2 mph - N/A   Clear
2:53 PM 84.0 °F 33.1 °F 16% 29.68 in 10.0 mi WNW 9.2 mph - N/A   Clear
3:53 PM 84.9 °F 28.0 °F 13% 29.64 in 10.0 mi West 9.2 mph - N/A   Clear
4:53 PM 86.0 °F 32.0 °F 14% 29.60 in 10.0 mi West 8.1 mph - N/A   Clear
5:53 PM 84.9 °F 33.1 °F 16% 29.57 in 10.0 mi WNW 5.8 mph - N/A   Clear
6:53 PM 82.0 °F 34.0 °F 18% 29.56 in 10.0 mi Calm Calm - N/A   Clear
7:53 PM 79.0 °F 44.1 °F 29% 29.52 in 10.0 mi WSW 4.6 mph - N/A   Clear
8:53 PM 79.0 °F 33.1 °F 19% 29.51 in 10.0 mi WSW 9.2 mph - N/A   Clear
9:41 PM 69.8 °F 41.0 °F 35% 29.63 in 7.0 mi West 12.7 mph - N/A   Mostly Cloudy
9:53 PM 68.0 °F 42.1 °F 39% 29.52 in 10.0 mi West 11.5 mph - N/A   Mostly Cloudy
10:09 PM 68.0 °F 41.0 °F 37% 29.64 in 10.0 mi WSW 11.5 mph 17.3 mph N/A   Scattered Clouds
10:53 PM 64.9 °F 39.9 °F 40% 29.53 in 10.0 mi WSW 20.7 mph 27.6 mph N/A   Clear
11:53 PM 64.0 °F 39.0 °F 40% 29.52 in 10.0 mi West 12.7 mph - N/A   Clear